This demonstration page uses our WeatherBlox Daily Observations layout. Learn more.

Left ArrowRight Arrow

Hourly Observations for June 12, 2015

Temp ( °F °C ) Dew Point ( °F °C ) Humidity (%) Winds ( mph kmh ) Pressure ( in mb ) Visibility ( mi km ) Precip ( " mm )
12:53 am 00:53 Clear 68 20 53 11.7 59 59 WSW 10 17 29.61 1003 10 16 0.00 0.00
1:53 am 01:53 Clear 66 18.9 52 11.1 61 61 SSW 13 20 29.62 1003 10 16 0.00 0.00
2:53 am 02:53 Clear 65 18.3 46 7.8 51 51 SSW 12 19 29.62 1003 10 16 0.00 0.00
3:53 am 03:53 Clear 65 18.3 43 6.1 45 45 WSW 14 22 29.65 1004 10 16 0.00 0.00
4:53 am 04:53 Clear 61 16.1 43 6.1 52 52 WSW 13 20 29.67 1005 10 16 0.00 0.00
5:53 am 05:53 Sunny 58 14.4 49 9.4 72 72 WNW 7 11 29.71 1006 10 16 0.00 0.00
6:53 am 06:53 Sunny 60 15.6 51 10.6 72 72 WNW 7 11 29.72 1007 10 16 0.00 0.00
7:53 am 07:53 Sunny 62 16.7 52 11.1 70 70 N 3 6 29.72 1007 10 16 0.00 0.00
8:53 am 08:53 Sunny 64 17.8 52 11.1 65 65 Calm 29.72 1007 10 16 0.00 0.00
9:53 am 09:53 Sunny 69 20.6 52 11.1 55 55 ENE 3 6 29.71 1006 10 16 0.00 0.00
10:53 am 10:53 Sunny 73 22.8 52 11.1 48 48 Calm 29.69 1005 10 16 0.00 0.00
11:53 am 11:53 Sunny 74 23.3 51 10.6 45 45 VRB 3 6 29.68 1005 10 16 0.00 0.00
12:53 pm 12:53 Sunny 79 26.1 46 7.8 31 31 W 9 15 29.66 1004 10 16 0.00 0.00
1:53 pm 13:53 Mostly Sunny 83 28.3 45 7.2 26 26 WSW 16 26 29.63 1004 10 16 0.00 0.00
2:53 pm 14:53 Sunny 83 28.3 38 3.3 20 20 WSW 14 22 29.62 1003 10 16 0.00 0.00
3:53 pm 15:53 Sunny 86 30 39 3.9 19 19 WNW 10 17 29.59 1002 10 16 0.00 0.00
4:53 pm 16:53 Partly Cloudy 82 27.8 34 1.1 18 18 WNW 21 33 29.59 1002 10 16 0.00 0.00
5:45 pm 17:45 Mostly Sunny 78 25.6 38 3.3 24 24 NW 30 48 29.50 999 10 16 0.00 0.00
5:53 pm 17:53 Mostly Sunny 77 25 41 5 28 28 NW 25 41 29.63 1003 10 16 0.00 0.00
6:53 pm 18:53 Sunny 73 22.8 42 5.6 33 33 NNW 24 39 29.66 1004 10 16 0.00 0.00
7:53 pm 19:53 Sunny 70 21.1 42 5.6 37 37 NNW 16 26 29.72 1006 10 16 0.00 0.00
8:53 pm 20:53 Sunny 65 18.3 44 6.7 47 47 NW 18 30 29.75 1008 10 16 0.00 0.00
9:53 pm 21:53 Clear 60 15.6 44 6.7 56 56 NNW 16 26 29.80 1009 10 16 0.00 0.00
10:53 pm 22:53 Clear 56 13.3 43 6.1 62 62 N 10 17 29.83 1010 10 16 0.00 0.00
11:53 pm 23:53 Clear 53 11.7 43 6.1 69 69 NNW 5 7 29.85 1011 10 16 0.00 0.00

Powered by AerisWeather